IRNSS-1E

Last updated on Fri Jun 19 2026 17:09:32 GMT+0000 (Coordinated Universal Time)

1 41241U 16003A 26169.73041566 -.00000318 00000+0 00000+0 0 9999 2 41241 33.2372 59.7280 0018940 178.9729 42.9724 1.00277463 38098
UTC large
Height (km)
Speed (km/s)
/
Latitude / Longitude
Inclination (degrees)
Orbital Period (minutes)
Azimuth
Elevation
Range (km)
Doppler Factor

Next 0 passes for location: London (51.5072 / 0.1276)

No passes found over London.
IRNSS-1E